Home   Weather   Gran   Past weeks

Flag for Norway Past Weather in Gran, Norway — Yesterday and Last 2 Weeks

Now
16 °F

Cold.


Feels Like: 16 °F
Forecast: 26 / 35 °F
Wind: 2 mph from Northeast

Location: Oslo Gardermoen Airport

Current Time: Jan 24, 2017 at 4:25:05 am

Latest Report: Jan 24, 2017 at 3:50 am


Visibility: 4 mi

Pressure: 30.09 "Hg

Humidity: 93%

Dew Point: 14 °F

Location of GranLocation

Past Weather in Gran — Graph

°F

Gran Temperature Yesterday

Maximum temperature yesterday: 28 °F (at 12:20 am)
Minimum temperature yesterday: 19 °F (at 10:50 pm)
Average temperature yesterday: 25 °F

High & Low Weather Summary for the Past Weeks

 TemperatureHumidityPressure
High48 °F (Jan 19, 1:20 pm)100% (Jan 9, 5:50 am)30.39 "Hg (Jan 9, 5:50 am)
Low12 °F (Jan 15, 10:50 pm)53% (Jan 19, 6:50 pm)28.50 "Hg (Jan 11, 4:20 pm)
Average28 °F85%29.82 "Hg
* Reported Jan 9 3:20 am — Jan 24 3:20 am, Gran, Weather by CustomWeather, © 2017

Note: Actual official high and low records may vary slightly from our data, if they occured in-between our weather recording intervals... More about our weather records

Advertising

Gran Weather History for the Previous 24 Hours

Scroll right to see more
 ConditionsComfort  
Time TempWeatherWind HumidityBarometerVisibility
3:20 am
Tue, Jan 24
16 °FCold.No wind93%30.09 "HgN/A
2:50 am16 °FPassing clouds.2 mph93%30.09 "HgN/A
2:20 am18 °FFog.1 mph86%30.09 "HgN/A
1:50 am16 °FPassing clouds.3 mph93%30.09 "HgN/A
1:20 am18 °FLight fog.2 mph86%30.09 "HgN/A
12:50 am18 °FFog.No wind93%30.09 "HgN/A
12:20 am18 °FFog.No wind93%30.07 "HgN/A
11:50 pm
Mon, Jan 23
19 °FPassing clouds.3 mph86%30.07 "HgN/A
11:20 pm19 °FFog.2 mph93%30.07 "HgN/A
10:50 pm19 °FClear.No wind93%30.07 "Hg10 mi
10:20 pm21 °FClear.2 mph86%30.07 "Hg10 mi
9:50 pm21 °FClear.No wind86%30.04 "Hg10 mi
9:20 pm21 °FPassing clouds.3 mph93%30.04 "HgN/A
8:50 pm21 °FSleet. Light fog.3 mph93%30.04 "HgN/A
8:20 pm21 °FLight fog.3 mph93%30.01 "HgN/A
7:50 pm23 °FLight fog.3 mph93%30.01 "Hg6 mi
7:20 pm23 °FCold.3 mph100%30.01 "Hg4 mi
6:50 pm23 °FCold.No wind93%30.01 "Hg1 mi
6:20 pm23 °FCold.2 mph93%29.98 "Hg1 mi
5:50 pm25 °FCold.2 mph93%29.98 "Hg1 mi
5:20 pm25 °FCold.3 mph93%29.98 "Hg1 mi
4:50 pm27 °FChilly.3 mph93%29.98 "Hg4 mi
4:20 pm27 °FFog.2 mph93%29.98 "Hg6 mi
3:50 pm28 °FFog.No wind93%29.95 "Hg6 mi
3:20 pm28 °FFog.2 mph93%29.95 "Hg6 mi
2:50 pm28 °FFog.3 mph93%29.95 "Hg6 mi
2:20 pm28 °FFog.2 mph93%29.98 "Hg6 mi
1:50 pm28 °FSnow. Fog.No wind93%29.98 "HgN/A
1:20 pm27 °FFog.No wind100%29.98 "HgN/A
12:50 pm27 °FPartly sunny.2 mph93%29.98 "Hg4 mi
12:20 pm25 °FCold.1 mph93%29.98 "Hg1 mi
11:50 am25 °FCold.3 mph93%29.98 "Hg1 mi
11:20 am25 °FCold.2 mph100%29.98 "Hg2 mi
10:50 am27 °FPartly sunny.1 mph93%29.98 "Hg2 mi
10:20 am25 °FCold.2 mph100%29.98 "Hg2 mi
9:50 am25 °FIce fog.No wind93%29.98 "Hg1 mi
9:20 am25 °FLight freezing rain. Ice fog.No wind93%29.98 "Hg0 mi
8:50 am25 °FIce fog.No wind93%29.98 "Hg1 mi
8:20 am25 °FIce fog.2 mph93%29.98 "Hg1 mi
7:50 am25 °FIce fog.2 mph100%29.98 "Hg1 mi
7:20 am25 °FCold.2 mph93%29.98 "Hg1 mi
6:50 am25 °FIce fog.6 mph93%29.98 "Hg1 mi
6:20 am25 °FCold.3 mph100%29.98 "Hg1 mi
5:50 am25 °FIce fog.3 mph100%29.98 "Hg1 mi
5:20 am25 °FCold.2 mph100%29.98 "Hg1 mi
4:50 am25 °FIce fog.No wind100%29.98 "Hg1 mi
4:20 am27 °FIce fog.2 mph93%30.01 "Hg1 mi
Weather by CustomWeather, © 2017

See weather overviewHow to use our weather pages